Temp
10 10 9 9 10 9 9 10 10 10 10 10 10 10 10 10 10 9 9 9 8 8 8 7 7 7 8 7 7 8 8 7 7 7 7 7 7 6 6 7 7 7 7
10 9 9 9 9 9 9 9 9 9 10 9 10 9 9 9 10 10 9 9 9 9 8 8 7 7 7 7 7 7 7 7 7 7 7 7 6 6 6 7 7 7 7
10 9 9 9 9 9 9 9 9 9 9 9 9 9 9 9 9 9 9 9 9 9 8 8 8 8 8 7 7 7 7 7 7 6 7 7 6 6 6 6 6 6 6
10 9 9 9 8 8 8 8 8 8 8 8 8 8 9 9 9 9 9 9 9 9 9 8 8 8 8 8 8 7 7 7 6 6 6 5 6 5 5 6 6 6 6
9 9 9 9 9 8 8 8 8 7 7 7 8 8 8 8 8 8 8 8 8 8 8 8 7 8 8 8 8 7 7 7 6 6 6 5 5 4 5 6 6 5 5
9 9 9 9 9 8 8 8 8 7 7 7 7 7 7 7 8 8 8 8 8 8 7 8 7 7 7 7 7 7 7 7 6 6 6 5 4 5 5 5 5 5 5
9 9 8 8 8 8 8 8 7 7 7 7 7 7 7 7 6 7 7 7 7 7 7 8 7 7 7 7 7 7 7 7 7 6 6 5 6 4 5 5 5 5 5
9 9 8 8 8 8 8 7 7 7 7 7 7 7 6 6 6 6 6 7 7 7 7 7 7 7 7 7 7 7 7 7 6 6 5 4 5 6 4 5 5 5 5
9 8 8 8 8 8 7 7 7 7 7 6 6 6 6 6 6 6 6 6 6 6 6 6 6 6 6 7 7 7 7 7 6 6 6 6 6 5 4 5 5 5 4
8 8 8 8 7 7 7 7 7 6 6 6 6 6 6 6 6 6 5 6 5 5 5 6 6 6 6 6 6 6 6 6 6 6 6 6 6 5 5 5 5 5 5
8 7 7 7 7 7 6 6 6 6 6 6 6 6 5 5 5 5 5 5 5 5 5 5 5 5 5 6 6 6 6 7 7 7 6 6 7 6 5 5 5 5 5
7 7 7 7 6 6 6 6 6 6 6 6 6 6 5 5 5 5 5 5 5 5 6 6 6 5 5 5 5 5 6 6 6 5 5 6 6 6 5 5 5 5 5
7 7 7 6 6 6 6 6 5 5 5 5 5 5 5 5 5 4 4 5 5 5 5 5 5 5 5 6 6 5 5 6 5 3 3 5 6 7 6 5 5 5 5
7 7 6 6 6 6 6 5 5 5 5 5 4 4 4 4 4 5 5 5 5 5 5 5 5 5 5 5 5 6 5 5 5 5 5 5 5 5 6 5 5 5 5
7 6 6 6 6 6 5 5 5 5 5 4 4 4 4 4 4 4 4 5 5 4 4 4 5 5 5 5 5 5 6 6 5 5 4 4 4 4 5 6 5 5 5
7 6 6 6 6 6 5 5 5 4 4 4 4 4 4 4 4 4 4 4 4 4 4 4 4 4 5 5 5 5 5 6 6 5 5 4 4 4 4 5 5 5 5
6 6 6 5 5 5 5 4 4 4 4 4 4 4 4 4 4 4 4 4 4 4 4 4 4 4 4 4 4 5 5 5 5 5 5 4 4 4 4 4 4 5 5
6 6 5 5 5 5 4 4 4 4 4 4 4 3 3 3 3 3 3 3 3 3 3 3 4 3 3 3 4 4 4 4 4 4 5 5 4 3 3 4 4 5 5
6 5 5 5 5 4 4 4 4 3 3 3 3 3 3 3 3 2 2 2 2 2 2 2 2 2 2 2 2 3 3 2 2 3 3 4 4 4 3 3 3 3 3
5 5 5 4 4 4 3 3 3 3 3 2 2 2 2 2 2 2 2 2 1 1 1 1 1 1 1 1 1 1 1 1 1 2 3 3 3 3 4 2 2 3 3
5 5 4 4 4 3 3 3 2 2 1 1 1 1 1 1 1 1 0 -0 -0 -0 -0 -0 -0 -0 -0 -0 0 1 0 -0 0 1 1 2 2 2 3 3 3 2 3
5 5 4 4 3 3 2 2 1 1 1 0 0 1 0 1 0 -0 -0 -1 -1 -1 -1 -1 -1 -1 -1 -1 -1 -1 0 1 0 -0 0 0 1 1 2 2 2 2 2
5 4 4 3 2 2 1 1 0 -0 -0 -0 -0 -0 -1 -1 -1 -1 -2 -2 -2 -1 -1 -1 -2 -2 -1 -2 -2 -2 -1 -1 0 1 0 0 -0 0 1 1 1 2 2
5 4 3 2 2 1 0 -0 -1 -1 -1 -1 -1 -1 -2 -2 -2 -2 -2 -2 -2 -2 -2 -2 -2 -2 -2 -2 -2 -3 -3 -3 -3 0 1 0 0 1 0 0 0 0 1
4 3 2 2 1 0 -1 -1 -1 -1 -1 -2 -2 -2 -3 -3 -3 -3 -3 -3 -3 -3 -3 -3 -3 -3 -3 -3 -3 -3 -3 -3 -4 -4 -1 -0 -0 -1 -1 -1 -0 -0 -0
3 2 2 1 0 -1 -1 -1 -2 -2 -2 -3 -3 -3 -3 -3 -3 -3 -3 -3 -4 -3 -3 -4 -3 -3 -3 -4 -4 -4 -4 -4 -4 -5 -4 -2 -2 -1 -1 -1 -1 -1 -1
Height
3165 3167 3169 3170 3170 3169 3168 3167 3166 3166 3165 3163 3161 3160 3159 3158 3157 3156 3156 3155 3155 3154 3153 3153 3152 3151 3150 3150 3149 3148 3147 3146 3144 3143 3141 3139 3138 3136 3136 3135 3134 3133 3131
3166 3167 3169 3170 3169 3169 3168 3167 3166 3165 3165 3164 3163 3162 3161 3159 3158 3157 3157 3156 3155 3154 3153 3153 3152 3151 3150 3150 3149 3147 3146 3145 3143 3141 3140 3139 3136 3136 3136 3135 3133 3131 3130
3165 3167 3168 3168 3168 3168 3166 3166 3166 3165 3164 3164 3163 3163 3162 3161 3159 3158 3157 3156 3156 3154 3153 3153 3152 3151 3150 3149 3148 3147 3146 3144 3142 3140 3138 3136 3137 3136 3135 3134 3132 3131 3128
3165 3166 3167 3166 3166 3166 3165 3165 3164 3164 3163 3163 3163 3162 3162 3161 3160 3159 3158 3157 3156 3155 3154 3153 3152 3151 3150 3149 3148 3146 3145 3143 3141 3139 3137 3135 3134 3134 3134 3133 3131 3130 3128
3164 3165 3165 3165 3164 3164 3163 3163 3163 3162 3161 3161 3161 3161 3160 3160 3160 3159 3158 3157 3156 3155 3154 3153 3152 3150 3149 3148 3147 3145 3144 3143 3140 3138 3136 3134 3133 3134 3133 3132 3131 3129 3127
3163 3163 3163 3163 3162 3162 3161 3161 3160 3160 3159 3159 3159 3158 3158 3158 3157 3157 3157 3156 3155 3154 3153 3151 3150 3149 3148 3147 3146 3144 3143 3141 3140 3138 3135 3135 3132 3133 3133 3131 3129 3128 3126
3161 3161 3161 3161 3161 3160 3160 3159 3158 3158 3157 3157 3156 3156 3155 3155 3155 3154 3154 3154 3153 3152 3152 3151 3149 3148 3146 3145 3144 3143 3141 3140 3139 3137 3135 3132 3131 3132 3131 3129 3128 3126 3125
3161 3160 3160 3160 3159 3159 3158 3157 3157 3156 3155 3155 3154 3153 3152 3152 3151 3151 3151 3150 3150 3149 3149 3148 3147 3146 3145 3144 3143 3141 3139 3138 3137 3136 3134 3132 3130 3129 3129 3128 3127 3126 3124
3158 3158 3158 3158 3157 3156 3156 3155 3154 3153 3153 3152 3151 3151 3149 3148 3147 3146 3147 3147 3145 3145 3145 3144 3143 3142 3141 3141 3140 3139 3138 3137 3135 3134 3132 3129 3128 3128 3127 3127 3126 3125 3123
3156 3156 3156 3155 3154 3154 3153 3153 3152 3151 3151 3150 3149 3148 3147 3146 3145 3144 3143 3142 3142 3141 3141 3140 3139 3138 3137 3137 3137 3136 3135 3134 3132 3130 3129 3126 3126 3126 3126 3125 3124 3124 3122
3154 3154 3153 3152 3152 3152 3152 3151 3150 3150 3149 3148 3147 3146 3145 3144 3143 3142 3141 3140 3139 3138 3137 3136 3135 3134 3133 3133 3132 3131 3128 3128 3126 3126 3125 3122 3122 3122 3122 3122 3122 3122 3121
3152 3152 3151 3151 3151 3150 3150 3149 3148 3147 3146 3145 3144 3143 3142 3141 3140 3139 3138 3136 3135 3133 3132 3131 3131 3130 3129 3127 3127 3126 3125 3121 3121 3123 3123 3121 3116 3119 3119 3119 3119 3118 3118
3150 3150 3151 3151 3151 3150 3149 3148 3147 3146 3145 3144 3143 3141 3140 3139 3137 3136 3135 3133 3132 3131 3129 3127 3125 3124 3123 3122 3122 3120 3118 3115 3114 3094 3107 3115 3111 3113 3116 3116 3115 3115 3115
3146 3147 3148 3149 3148 3147 3147 3146 3144 3143 3142 3141 3140 3139 3137 3136 3134 3132 3131 3129 3127 3126 3124 3123 3121 3119 3117 3116 3114 3114 3112 3109 3107 3110 3110 3108 3106 3109 3110 3111 3112 3112 3112
3142 3143 3144 3144 3144 3144 3143 3142 3140 3139 3138 3137 3135 3134 3132 3131 3129 3127 3125 3123 3121 3120 3118 3116 3114 3113 3111 3109 3108 3106 3105 3103 3101 3100 3100 3100 3101 3102 3103 3105 3106 3107 3107
3139 3140 3141 3141 3141 3140 3139 3138 3137 3135 3134 3132 3131 3130 3128 3126 3124 3122 3119 3117 3116 3112 3110 3108 3107 3105 3103 3101 3100 3097 3096 3095 3094 3093 3093 3093 3095 3096 3095 3097 3099 3099 3101
3135 3137 3138 3138 3137 3136 3135 3134 3133 3131 3129 3127 3125 3124 3122 3121 3119 3116 3114 3112 3110 3106 3102 3100 3098 3096 3093 3092 3089 3088 3086 3086 3085 3085 3085 3085 3085 3087 3088 3088 3090 3091 3092
3131 3132 3133 3133 3132 3132 3131 3129 3128 3126 3124 3123 3121 3119 3117 3115 3113 3110 3107 3104 3102 3098 3094 3091 3088 3086 3083 3081 3078 3077 3076 3075 3075 3074 3073 3074 3075 3076 3076 3080 3081 3082 3084
3127 3128 3128 3128 3128 3127 3126 3124 3123 3121 3119 3117 3115 3113 3111 3109 3107 3103 3099 3096 3092 3089 3085 3082 3079 3075 3073 3070 3069 3067 3066 3066 3063 3063 3063 3061 3061 3064 3065 3067 3069 3072 3074
3121 3122 3122 3122 3122 3121 3120 3118 3118 3116 3114 3111 3109 3107 3105 3102 3099 3095 3092 3088 3084 3080 3077 3074 3071 3068 3064 3060 3058 3056 3057 3056 3054 3051 3050 3052 3050 3051 3051 3053 3055 3056 3063
3116 3116 3116 3117 3117 3116 3115 3114 3112 3110 3107 3106 3103 3100 3098 3094 3091 3087 3084 3081 3078 3073 3070 3067 3064 3061 3058 3053 3049 3048 3048 3046 3044 3044 3040 3039 3040 3038 3040 3043 3046 3047 3049
3110 3110 3111 3112 3112 3111 3110 3108 3106 3104 3102 3100 3097 3094 3091 3088 3084 3081 3078 3074 3071 3067 3063 3060 3055 3052 3050 3046 3039 3037 3033 3036 3035 3033 3031 3031 3029 3028 3026 3029 3029 3031 3034
3103 3104 3105 3105 3105 3104 3103 3102 3101 3099 3096 3094 3091 3088 3084 3081 3077 3073 3070 3067 3064 3060 3056 3054 3049 3045 3041 3040 3036 3029 3022 3020 3017 3019 3022 3022 3021 3018 3015 3013 3015 3017 3019
3097 3098 3098 3099 3099 3099 3098 3097 3095 3093 3091 3088 3086 3083 3079 3075 3071 3067 3064 3061 3058 3053 3049 3046 3043 3039 3035 3031 3030 3026 3020 3013 3007 3002 3007 3006 3006 3006 3005 3003 3001 3002 3004
3091 3091 3092 3092 3093 3093 3092 3091 3090 3088 3086 3083 3080 3077 3074 3070 3066 3062 3059 3056 3052 3048 3044 3039 3035 3032 3028 3023 3019 3016 3014 3008 3004 2998 2988 2995 2995 2991 2992 2991 2990 2989 2989
3084 3085 3086 3086 3086 3087 3087 3086 3085 3083 3080 3077 3074 3070 3067 3064 3061 3056 3053 3050 3046 3040 3037 3034 3029 3025 3020 3017 3012 3007 3003 3000 2994 2990 2985 2981 2978 2981 2977 2978 2978 2977 2976
Wind_Speed
5 3 4 6 8 9 9 9 10 10 11 10 10 11 12 12 12 12 11 10 9 9 8 8 8 7 7 7 9 10 11 12 14 15 15 13 13 13 12 11 13 14 15
4 6 6 7 8 10 10 9 9 9 9 11 10 9 8 9 10 10 10 9 9 8 8 8 8 8 8 9 9 10 11 12 13 15 14 12 11 9 10 11 11 13 15
1 1 4 6 9 10 10 10 10 11 11 10 10 10 9 8 7 7 7 7 8 8 8 8 8 8 8 9 10 10 11 12 13 14 14 12 4 9 10 12 13 15 16
1 0 1 3 4 6 8 9 10 12 13 13 14 13 12 11 10 7 6 6 6 7 8 9 9 10 10 10 11 11 12 12 13 13 14 13 10 11 13 14 15 17 17
5 2 1 2 4 5 6 7 8 10 11 11 12 13 14 14 14 13 11 9 8 6 7 8 10 10 11 10 11 11 12 13 13 13 14 14 14 11 13 16 16 16 17
4 2 1 3 5 6 7 9 10 11 11 12 12 13 13 14 14 14 14 14 14 13 11 10 11 12 12 12 12 13 13 12 13 13 13 13 11 10 13 16 14 15 17
2 2 4 6 6 7 8 9 10 11 12 13 14 14 14 14 14 15 15 16 16 16 16 17 16 16 15 14 13 12 13 13 12 12 14 15 13 11 12 14 13 15 15
5 6 7 8 9 10 12 13 14 15 16 17 17 16 16 16 16 17 17 18 18 19 17 17 18 19 20 19 18 16 14 13 14 14 14 10 16 11 12 13 13 14 14
7 7 9 10 12 14 15 15 16 17 18 18 18 18 17 15 15 15 15 16 17 18 18 19 21 21 21 21 20 21 21 18 16 16 16 20 13 13 11 13 12 13 13
8 8 10 12 12 10 11 12 13 14 14 14 15 15 17 17 18 18 17 17 18 19 20 21 22 24 24 23 22 21 22 22 21 20 18 22 15 10 12 12 12 12 13
9 8 9 8 7 8 8 8 10 12 13 13 14 14 14 15 16 17 19 21 22 20 20 20 22 23 25 25 23 23 24 24 26 24 23 23 20 13 14 13 13 13 13
10 10 7 5 5 6 8 10 12 13 13 13 12 11 12 13 13 15 16 18 19 22 23 24 25 25 26 24 23 24 27 28 31 29 27 26 24 19 17 17 16 15 14
14 11 7 5 5 8 10 12 13 13 14 13 12 12 13 14 15 16 16 17 17 17 17 20 21 22 23 25 28 27 29 31 29 39 18 27 27 26 22 22 19 18 16
14 10 10 8 9 10 11 13 14 16 17 16 16 17 18 18 20 22 23 24 24 24 25 25 26 26 26 26 25 25 29 31 34 32 33 32 32 31 28 26 24 23 21
15 13 13 13 13 13 14 15 17 18 19 21 21 22 23 23 24 25 25 27 28 28 29 29 30 30 30 30 29 29 28 31 35 35 34 35 34 35 34 31 30 28 26
17 16 15 14 15 16 18 19 20 21 22 24 24 23 25 25 26 27 27 28 28 29 30 31 32 34 34 34 33 33 32 32 33 35 38 39 38 34 35 36 34 34 32
19 17 16 16 17 18 20 21 22 24 26 26 25 23 22 22 23 25 27 28 29 33 35 35 35 35 36 36 37 37 36 35 36 37 38 41 42 41 40 36 39 38 38
20 19 19 19 20 20 22 23 23 25 26 24 23 23 24 25 26 29 31 32 32 32 34 35 36 36 36 36 37 38 37 37 36 37 41 42 44 43 44 44 41 41 41
23 22 21 22 22 22 24 26 26 26 24 23 24 25 27 29 30 33 34 34 34 33 34 35 34 37 36 36 36 37 36 35 36 37 38 41 45 49 45 48 46 45 41
25 25 24 24 24 25 26 27 26 25 23 25 26 28 30 32 33 34 35 36 35 35 35 36 36 36 37 38 37 37 35 35 35 37 39 39 42 46 53 50 50 50 45
28 27 27 26 26 26 26 27 25 23 24 26 28 31 31 33 34 35 34 35 35 35 35 35 35 34 33 35 37 37 33 32 33 33 33 37 40 44 44 49 55 52 54
30 29 29 27 27 28 27 24 23 23 25 26 29 32 33 34 34 33 33 34 34 34 34 34 36 35 33 35 39 39 39 35 34 32 35 33 36 41 46 43 46 57 56
31 31 29 28 27 27 25 23 22 23 26 28 30 32 33 33 32 32 33 34 35 36 35 34 36 37 37 35 36 40 43 42 43 39 35 34 35 38 43 48 47 49 58
32 31 29 28 26 25 23 22 22 24 26 29 31 31 31 31 32 32 32 33 34 35 35 34 34 35 36 38 36 36 39 43 45 48 41 40 42 38 38 43 49 50 50
31 30 27 27 26 24 22 22 23 25 27 29 30 30 29 29 30 30 31 33 34 35 35 36 35 35 36 38 39 38 38 41 40 43 49 40 42 43 39 38 42 49 51
29 27 27 26 25 23 23 23 23 25 27 29 30 29 29 29 30 31 31 32 34 36 35 34 36 36 38 38 39 40 41 41 42 43 45 45 45 42 43 37 37 42 47
Wind_Direction
43 310 299 312 329 340 358 4 1 0 5 16 32 44 47 45 45 46 50 54 50 42 34 22 16 12 7 357 347 340 337 331 328 324 323 322 316 312 311 312 316 320 317
16 307 301 304 324 331 336 341 344 348 351 353 359 11 27 37 35 34 30 32 34 31 24 14 6 360 356 349 342 343 337 334 332 327 326 325 319 332 319 320 323 327 326
292 294 324 320 326 326 327 330 332 334 336 338 342 345 350 357 13 20 18 15 9 11 9 1 354 350 345 344 340 338 337 337 336 331 325 331 324 335 332 330 324 328 327
176 268 335 337 334 330 336 335 332 333 337 336 337 335 335 334 333 336 346 346 347 350 348 344 339 337 335 335 334 335 335 338 337 331 329 338 330 342 335 323 319 325 329
136 127 72 19 356 345 341 335 328 333 334 332 330 328 327 325 324 321 323 322 317 319 324 329 321 321 322 324 326 328 331 334 334 328 323 335 329 325 328 327 318 321 327
157 147 22 336 327 321 316 317 321 323 322 320 320 317 314 312 312 314 316 313 311 309 302 298 303 308 310 311 316 320 323 327 326 326 322 285 312 302 314 323 321 324 331
234 297 327 335 329 319 315 312 310 309 307 307 306 305 303 302 304 302 303 306 305 305 307 306 305 304 301 301 301 305 309 312 315 317 315 321 310 297 312 324 316 323 331
295 313 323 326 321 314 308 304 303 303 304 304 305 306 306 306 307 305 304 299 305 304 303 300 301 302 301 300 299 296 294 298 303 305 310 294 316 307 316 323 317 312 323
289 300 310 311 312 311 307 303 302 302 303 304 305 304 302 302 299 300 306 301 291 290 292 292 293 293 293 293 295 298 298 294 291 294 298 298 293 311 304 311 315 308 315
284 295 306 310 313 317 317 317 316 317 318 315 308 302 299 300 299 299 297 294 292 290 288 285 287 290 290 291 290 290 293 291 289 286 286 289 295 291 297 299 306 307 309
278 288 296 302 310 318 323 324 323 323 323 320 314 307 304 303 303 302 299 299 299 298 292 292 288 286 287 288 287 286 279 286 286 280 276 273 282 280 286 287 290 295 300
276 287 282 279 296 306 312 319 322 322 321 322 322 319 313 310 304 300 299 295 294 292 295 293 291 289 289 291 285 279 280 277 278 288 277 280 282 279 275 276 280 281 287
279 281 256 276 311 324 323 322 324 324 324 319 314 309 305 304 301 300 300 298 297 298 294 297 296 293 291 286 281 281 275 275 275 292 287 283 280 279 271 272 270 274 275
268 257 245 264 292 309 315 317 315 313 312 310 303 300 298 298 298 298 298 296 293 292 288 288 288 293 294 293 291 282 275 276 276 276 276 277 281 277 271 267 269 270 271
256 246 249 261 280 295 308 313 310 305 303 303 302 300 298 299 299 297 294 292 292 294 290 287 286 284 284 284 285 284 282 274 270 272 270 272 268 268 275 270 265 264 265
246 248 254 265 282 295 303 307 305 302 302 301 300 298 297 299 300 300 302 301 302 295 293 289 287 286 284 282 279 277 275 273 271 267 265 264 265 264 265 269 264 262 262
245 248 257 269 279 290 298 303 303 302 304 305 305 307 305 307 307 303 300 299 299 296 295 293 290 287 284 283 281 278 275 270 267 266 261 260 260 260 261 263 262 262 259
247 250 262 272 279 288 295 298 298 300 303 304 306 308 308 310 310 308 307 306 300 296 292 291 290 288 287 283 280 278 275 272 268 263 260 258 254 257 257 255 261 261 258
246 252 261 270 279 286 292 295 298 300 300 303 307 308 310 310 311 310 309 308 305 302 299 297 295 294 292 289 286 282 280 280 275 270 267 259 255 251 250 252 252 254 258
247 254 262 270 278 285 291 295 299 299 304 308 310 312 315 315 314 311 309 307 305 302 301 299 299 298 298 296 295 291 292 289 288 280 272 273 265 258 251 244 247 249 255
251 257 264 272 280 286 291 294 297 303 306 308 312 314 317 315 314 311 309 308 307 305 304 303 301 299 297 296 296 294 295 293 290 292 285 278 275 270 262 259 248 245 245
253 258 265 273 280 285 287 292 298 302 305 311 314 315 316 314 311 309 308 307 306 303 303 306 305 304 303 303 302 303 301 297 297 297 293 293 286 279 272 264 254 247 246
253 258 266 272 278 283 288 293 298 303 308 314 316 315 314 313 312 312 310 310 307 305 304 305 306 306 305 304 304 306 304 302 300 297 294 290 290 284 276 271 264 253 246
253 257 264 273 277 280 286 293 296 302 309 314 317 317 314 312 310 309 308 308 308 306 305 304 303 303 303 303 302 302 301 302 303 298 297 297 298 290 276 270 269 264 252
253 256 265 270 274 277 283 288 295 304 312 318 321 318 315 310 309 308 309 309 308 307 306 306 305 305 305 305 306 305 301 298 297 297 297 295 298 295 287 276 266 264 261
255 257 262 266 269 274 282 287 297 308 315 319 321 318 315 312 311 310 311 311 309 308 307 307 305 306 305 306 305 306 305 301 298 296 294 299 303 301 289 281 273 265 261